Location: Arboyeti
(42.1122°N, 44.6017°E)
Time: 19:23:58
(UTC+00:00)

COSMOS 2406 - Pass Details

Date: 19 April 2021
Orbit: 845 x 862 km, 71.0° (Epoch: 18 May)

Event Time Altitude Azimuth Distance (km) Brightness Sun altitude
Rises 22:30:35 0° 338° (NNW) 3,416 6.9 -32.5°
Reaches altitude 10° 22:33:04 10° 341° (NNW) 2,476 6.1 -32.3°
Enters shadow 22:37:58 58° 25° (NNE) 982 3.7 -31.9°
